Location: Luxembourg
(49.6117°N, 6.1300°E)
Time: 22:19:19
(UTC+01:00)

N. Korean satellite - Pass Details

Date: 25 January 2019
Orbit: 457 x 510 km, 97.2° (Epoch: 18 February)

Event Time Altitude Azimuth Distance (km) Brightness Sun altitude
Rises 06:55:03 0° 13° (NNE) 2,621 10.3 -13.2°
Reaches altitude 10° 06:57:10 10° 15° (NNE) 1,725 9.4 -12.9°
Maximum altitude 07:00:53 81° 102° (ESE) 511 6.7 -12.3°
Drops below altitude 10° 07:04:31 10° 191° (S) 1,682 9.4 -11.7°
Sets 07:06:34 0° 192° (SSW) 2,550 10.3 -11.4°
